Thunder radar more information blitzortung!


Radar de pluja more information rain snow radar


Visita la nostra xarxa de llocs de meteo:

Template documentation
and downloads

And another site



No particular awareness of the weather is required.    There are no Weather-warnings

Pagina Historial Weather Underground text

Diari Resum Cap La, TWC- Unitats:  Imperial    Mètric   Tant
« Previous Dia
SegĂźent Dia »
Diari Setmana Mensual Anual Personalitzada
  Maxima: Minima: Media:
Temperatura: TemperatureF °F 54.0 °F 55.1 °F
Punt de rosada: DewpointF °F 47.9 °F 50 °F
Humitat: Humidity % 78 % 82 %
Wind Speed: WindSpeedMPH mph 0.0 mph 2.9 mph
RĂ fegues de vent: WindSpeedGustMPH mph - -
Vent:- - NE
Pression baro: PressureIn in 30.09 in -
Precipitacions: 0.00 in    
Historical Graphs
 
 
Dades de taula per Cap La, TWC-
Temps Temperatura Punt de rosada Pression baro Vent Wind Speed RĂ fegues de vent Humitat Rainfall Rate (Hourly)
TemperatureF °F DewpointF °F PressureIn in Calm     Humidity % HourlyPrecipIn in
00:04 56.7 °F 52.8 °F 30.15 in Calm     87 % 0.00 in
00:09 56.7 °F 52.8 °F 30.15 in Calm     87 % 0.00 in
00:14 56.7 °F 52.8 °F 30.15 in Calm     87 % 0.00 in
00:19 56.7 °F 52.8 °F 30.18 in Calm     87 % 0.00 in
00:24 56.7 °F 52.8 °F 30.18 in NNW 1.2 mph   87 % 0.00 in
00:29 56.5 °F 52.7 °F 30.18 in Calm     87 % 0.00 in
00:34 56.5 °F 52.7 °F 30.18 in NNE 1.2 mph 0.9 mph 87 % 0.00 in
00:39 56.5 °F 52.7 °F 30.18 in Calm     87 % 0.00 in
00:44 56.3 °F 52.8 °F 30.18 in Calm     88 % 0.00 in
00:49 56.3 °F 52.8 °F 30.15 in NNE 2.3 mph 1.4 mph 88 % 0.00 in
00:54 56.3 °F 52.5 °F 30.15 in North 1.2 mph   87 % 0.00 in
00:59 56.3 °F 52.8 °F 30.15 in NE 1.2 mph   88 % 0.00 in
01:04 56.3 °F 52.8 °F 30.15 in NNE 2.3 mph 2.0 mph 88 % 0.00 in
01:09 56.3 °F 52.5 °F 30.15 in NE 3.1 mph 2.6 mph 87 % 0.00 in
01:14 56.3 °F 52.5 °F 30.15 in NNE 3.5 mph 2.4 mph 87 % 0.00 in
01:19 56.3 °F 52.5 °F 30.15 in NNE 2.6 mph 1.6 mph 87 % 0.00 in
01:24 56.3 °F 52.5 °F 30.15 in NNE 2.3 mph 2.4 mph 87 % 0.00 in
01:29 56.5 °F 52.7 °F 30.15 in NE 4.6 mph 2.2 mph 87 % 0.00 in
01:34 56.5 °F 52.7 °F 30.15 in NE 2.3 mph 1.6 mph 87 % 0.00 in
01:39 56.3 °F 52.5 °F 30.15 in NNE 2.9 mph 2.0 mph 87 % 0.00 in
01:44 56.3 °F 52.5 °F 30.15 in NNE 2.9 mph 2.6 mph 87 % 0.00 in
01:49 56.3 °F 52.5 °F 30.12 in ENE 3.5 mph 2.9 mph 87 % 0.00 in
01:54 56.3 °F 52.2 °F 30.12 in NNE 3.5 mph 3.6 mph 86 % 0.00 in
01:59 56.3 °F 52.2 °F 30.12 in NNE 4.6 mph 3.1 mph 86 % 0.00 in
02:04 56.3 °F 52.2 °F 30.12 in ENE 4.6 mph 3.8 mph 86 % 0.00 in
02:09 56.1 °F 52.0 °F 30.12 in ENE 4.6 mph 3.3 mph 86 % 0.00 in
02:14 56.1 °F 52.0 °F 30.12 in NE 4.6 mph 2.9 mph 86 % 0.00 in
02:19 56.1 °F 51.7 °F 30.12 in ENE 5.8 mph 4.0 mph 85 % 0.00 in
02:24 56.1 °F 51.7 °F 30.12 in NNE 5.8 mph 3.3 mph 85 % 0.00 in
02:29 56.1 °F 51.7 °F 30.12 in NNE 4.6 mph 3.1 mph 85 % 0.00 in
02:34 56.1 °F 51.4 °F 30.12 in ENE 3.5 mph 2.4 mph 84 % 0.00 in
02:39 56.1 °F 51.4 °F 30.12 in NE 4.6 mph 2.0 mph 84 % 0.00 in
02:44 56.1 °F 51.4 °F 30.12 in NNE 4.3 mph 3.1 mph 84 % 0.00 in
02:49 56.1 °F 51.4 °F 30.15 in NNE 4.6 mph 2.6 mph 84 % 0.00 in
02:54 55.9 °F 51.2 °F 30.15 in NNE 3.5 mph 3.6 mph 84 % 0.00 in
02:59 55.9 °F 51.2 °F 30.15 in NNE 3.5 mph 2.4 mph 84 % 0.00 in
03:04 55.9 °F 51.2 °F 30.15 in NNE 4.6 mph 3.3 mph 84 % 0.00 in
03:09 55.9 °F 51.2 °F 30.15 in NNE 4.7 mph 3.3 mph 84 % 0.00 in
03:14 55.9 °F 50.9 °F 30.15 in NNE 4.6 mph 2.9 mph 83 % 0.00 in
03:19 55.9 °F 50.9 °F 30.09 in NE 3.3 mph 3.1 mph 83 % 0.00 in
03:24 55.9 °F 50.9 °F 30.09 in NE 3.5 mph 2.6 mph 83 % 0.00 in
03:29 55.9 °F 50.9 °F 30.09 in NE 3.5 mph 2.4 mph 83 % 0.00 in
03:34 55.9 °F 50.5 °F 30.12 in NNE 3.6 mph 2.4 mph 82 % 0.00 in
03:39 55.8 °F 50.3 °F 30.12 in NE 3.5 mph 2.9 mph 82 % 0.00 in
03:44 55.9 °F 50.5 °F 30.12 in NE 2.3 mph 2.0 mph 82 % 0.00 in
03:49 55.8 °F 50.3 °F 30.09 in NNE 3.1 mph 2.6 mph 82 % 0.00 in
03:54 55.9 °F 50.5 °F 30.09 in NNE 3.8 mph 3.1 mph 82 % 0.00 in
03:59 55.9 °F 50.5 °F 30.09 in NE 3.5 mph 3.1 mph 82 % 0.00 in
04:04 55.9 °F 50.2 °F 30.12 in NNE 3.5 mph 2.9 mph 81 % 0.00 in
04:09 55.9 °F 50.2 °F 30.12 in NNE 4.6 mph 3.3 mph 81 % 0.00 in
04:14 55.9 °F 50.2 °F 30.12 in NNE 3.5 mph 2.9 mph 81 % 0.00 in
04:19 55.8 °F 50.0 °F 30.12 in NE 3.6 mph 3.1 mph 81 % 0.00 in
04:24 55.8 °F 50.0 °F 30.12 in ENE 3.5 mph 3.1 mph 81 % 0.00 in
04:29 55.8 °F 50.0 °F 30.12 in NNE 4.6 mph 2.9 mph 81 % 0.00 in
04:34 55.8 °F 50.0 °F 30.09 in NE 3.5 mph 2.2 mph 81 % 0.00 in
04:39 55.6 °F 49.5 °F 30.09 in North 3.5 mph 2.6 mph 80 % 0.00 in
04:44 55.6 °F 49.5 °F 30.09 in NNE 3.5 mph 2.9 mph 80 % 0.00 in
04:49 55.6 °F 49.5 °F 30.09 in NNE 4.6 mph 2.9 mph 80 % 0.00 in
04:54 55.6 °F 49.5 °F 30.09 in NNE 2.9 mph 2.4 mph 80 % 0.00 in
04:59 55.4 °F 49.3 °F 30.09 in NE 2.4 mph 2.0 mph 80 % 0.00 in
05:04 55.6 °F 49.5 °F 30.09 in NE 2.9 mph 2.4 mph 80 % 0.00 in
05:09 55.6 °F 49.5 °F 30.09 in NNE 2.4 mph 2.2 mph 80 % 0.00 in
05:14 55.6 °F 49.5 °F 30.09 in ENE 2.4 mph 2.4 mph 80 % 0.00 in
05:19 55.6 °F 49.2 °F 30.09 in NNE 2.3 mph 1.4 mph 79 % 0.00 in
05:24 55.6 °F 49.2 °F 30.09 in NE 2.3 mph 1.4 mph 79 % 0.00 in
05:29 55.6 °F 49.2 °F 30.09 in NE 2.3 mph 1.6 mph 79 % 0.00 in
05:34 55.6 °F 49.2 °F 30.09 in NNW 1.2 mph   79 % 0.00 in
05:39 55.4 °F 49.0 °F 30.09 in NE 1.4 mph 0.9 mph 79 % 0.00 in
05:44 55.4 °F 49.0 °F 30.09 in NNE 1.2 mph 1.4 mph 79 % 0.00 in
05:49 55.4 °F 49.0 °F 30.09 in NNE 1.6 mph   79 % 0.00 in
05:54 55.4 °F 49.0 °F 30.09 in NNE 1.4 mph   79 % 0.00 in
05:59 55.4 °F 49.0 °F 30.09 in NNE 1.2 mph   79 % 0.00 in
06:04 55.4 °F 49.0 °F 30.09 in NE 2.4 mph 1.6 mph 79 % 0.00 in
06:09 55.4 °F 49.0 °F 30.09 in NNE 2.3 mph 1.4 mph 79 % 0.00 in
06:14 55.4 °F 48.7 °F 30.09 in NNE 2.3 mph 1.4 mph 78 % 0.00 in
06:19 55.4 °F 48.7 °F 30.09 in NE 2.0 mph 1.6 mph 78 % 0.00 in
06:24 55.4 °F 48.7 °F 30.09 in NNE 2.3 mph 1.6 mph 78 % 0.00 in
06:29 55.4 °F 48.7 °F 30.09 in NNE 1.2 mph   78 % 0.00 in
06:34 55.4 °F 48.7 °F 30.09 in ENE 2.0 mph 0.9 mph 78 % 0.00 in
06:39 55.0 °F 48.6 °F 30.09 in NE 4.0 mph 2.2 mph 79 % 0.00 in
06:44 54.9 °F 48.5 °F 30.09 in NNE 4.6 mph 3.1 mph 79 % 0.00 in
06:49 54.7 °F 48.3 °F 30.09 in NNE 3.5 mph 2.4 mph 79 % 0.00 in
06:54 54.5 °F 48.5 °F 30.09 in NE 4.6 mph 2.6 mph 80 % 0.00 in
06:59 54.3 °F 48.3 °F 30.09 in NE 4.6 mph 2.9 mph 80 % 0.00 in
07:04 54.3 °F 48.3 °F 30.09 in WNW 3.5 mph 2.4 mph 80 % 0.00 in
07:09 54.1 °F 48.1 °F 30.09 in NNE 2.6 mph 2.4 mph 80 % 0.00 in
07:14 54.1 °F 48.1 °F 30.09 in ENE 4.0 mph 3.8 mph 80 % 0.00 in
07:19 54.0 °F 47.9 °F 30.09 in NNE 3.5 mph 2.6 mph 80 % 0.00 in
07:24 54.0 °F 47.9 °F 30.09 in NNE 2.9 mph 2.4 mph 80 % 0.00 in
07:29 54.0 °F 47.9 °F 30.09 in NE 6.0 mph 3.1 mph 80 % 0.00 in
07:34 54.0 °F 47.9 °F 30.09 in NNE 2.6 mph 2.4 mph 80 % 0.00 in
Meteo Sesrovires
Elogis d' Weather Underground - 1.25 mb

Guio original per  Jim McMurry - jmcmurry@mwt.net Adaptat per a la plantilla per  Wim van der Kuil - Leuven-Template.eu

Trobareu la nostra informacio del temps tambe a:

Weather Underground

AWEKAS